Weather Roundup
Issued by NWS Springfield, MO

Home | Current Version | Previous Version | Text Only | Print | Product List | Glossary On
Versions: 1 2 3 4 5 6 7 8 9 10 11 12 13 14 15 16 17 18 19 20 21 22 23 24 25 26 27 28 29 30 31 32 33 34 35 36 37 38 39 40 41 42 43 44 45 46 47 48 49 50
000
NZUS99 KSGF 180859
HRRSGF

HOURLY WEATHER
NATIONAL WEATHER SERVICE SPRINGFIELD MO
400 AM CDT FRI APR 18 2014

......SGF CWA......

CITY           SKY/WX    TMP DP  RH WIND       PRES   REMARKS
SPRINGFIELD    PTCLDY    43  38  82 N5        30.23F
JOPLIN         CLOUDY    42  39  89 N3        30.26R
WEST PLAINS    CLOUDY    50  39  66 CALM      30.25R
ROLLA          MOCLDY    41  38  89 CALM      30.25S
OSAGE BEACH    CLOUDY    43  37  81 CALM      30.27F

......SURROUNDING SGF CWA......

CITY           SKY/WX    TMP DP  RH WIND       PRES   REMARKS
CHANUTE        CLEAR     33  32  96 N3        30.27S FOG
PARSONS        CLEAR     34  32  92 CALM      30.28S FOG
COFFEYVILLE    CLEAR     37  35  92 N3        30.27S FOG
EMPORIA        CLEAR     30  29  96 CALM      30.26S FOG
SILOAM SPRINGS MOCLDY    48  37  66 NE3       30.24S
HARRISON AR    CLOUDY    49  42  77 NW6       30.22S
NEAR YELLVILLE MOCLDY    50  36  57 CALM      30.23S

......KANSAS AND MISSOURI......

CITY           SKY/WX    TMP DP  RH WIND       PRES   REMARKS
KANSAS CTY INT PTCLDY    37  32  82 CALM      30.27F
DOWNTOWN KC    CLEAR     38  34  85 CALM      30.28S
COLUMBIA       CLOUDY    44  40  85 N3        30.28S
SEDALIA        CLEAR     39  37  92 CALM      30.29R FOG
ST JOSEPH      CLEAR     33  29  85 CALM      30.28S
ST LOUIS       PTCLDY    49  38  65 N3        30.27R
SPIRIT OF STL  PTCLDY    44  39  82 CALM      30.27S
KIRKSVILLE     CLEAR     31  29  92 N3        30.29S
WICHITA        PTCLDY    35  32  88 CALM      30.25F FOG
TOPEKA         CLEAR     35  30  82 CALM      30.28S HAZE
OLATHE         CLEAR     33  31  92 CALM      30.27R FOG

......TENNESSEE......

CITY           SKY/WX    TMP DP  RH WIND       PRES   REMARKS
MEMPHIS        MOCLDY    58  45  62 CALM      30.20R
NASHVILLE      CLOUDY    54  44  69 CALM      30.26F

......ARKANSAS.......

CITY           SKY/WX    TMP DP  RH WIND       PRES   REMARKS
FAYETTEVILLE   PTCLDY    45  42  89 CALM      30.23R
FT SMITH       PTCLDY    50  47  89 CALM      30.20S
LITTLE ROCK    CLOUDY    56  50  80 N6        30.22R

......OKLAHOMA.......

CITY           SKY/WX    TMP DP  RH WIND       PRES   REMARKS
TULSA          CLEAR     37  36  96 N5        30.25R FOG     WCI  33
PONCA CITY     CLEAR     32  29  88 N3        30.26S FOG
MCALESTER      PTCLDY    48  41  76 N3        30.22S
OKLAHOMA CITY  PTCLDY    47  39  74 N6        30.23F

......IOWA............

CITY           SKY/WX    TMP DP  RH WIND       PRES   REMARKS
DES MOINES     PTCLDY    36  29  75 E3        30.30S
QUAD CITIES    CLEAR     37  31  78 CALM      30.30R

......ILLINOIS........

CITY           SKY/WX    TMP DP  RH WIND       PRES   REMARKS
QUINCY         CLEAR     39  33  79 NW3       30.28S
CHICAGO        PTCLDY    44  36  73 NE10      30.24S




USA.gov is the U.S. government's official web portal to all federal, state and local government web resources and services.